ProjectID,Date,Electric Generation,Electric Utility Import,Facility Electric Load
,YYYY-MM-DD,kW,kW,kW
394,2016-10-01,0.0,,0.0
394,2016-10-02,0.0,,0.0
394,2016-10-03,0.0,,0.0
394,2016-10-04,0.0,,0.0
394,2016-10-05,0.0,,0.0
394,2016-10-06,0.0,,0.0
394,2016-10-07,0.0,,0.0
394,2016-10-08,0.0,,0.0
394,2016-10-09,0.0,,0.0
394,2016-10-10,0.0,,0.0
394,2016-10-11,0.0,,0.0
394,2016-10-12,0.0,,0.0
394,2016-10-13,0.0,,0.0
394,2016-10-14,0.0,,0.0
394,2016-10-15,0.0,,0.0
394,2016-10-16,0.0,,0.0
394,2016-10-17,0.0,,0.0
394,2016-10-18,0.0,,0.0
394,2016-10-19,0.0,,0.0
394,2016-10-20,0.0,,0.0
394,2016-10-21,0.0,,0.0
394,2016-10-22,0.0,,0.0
394,2016-10-23,0.0,,0.0
394,2016-10-24,0.0,,0.0
394,2016-10-25,0.0033333333333333335,,0.0033333333333333335
394,2016-10-26,17.49,,17.49
394,2016-10-27,1.5999999999999999,,1.5999999999999999
394,2016-10-28,8.183333333333335,,8.183333333333335
394,2016-10-29,3.2666666666666657,,3.2666666666666657
394,2016-10-30,5.680000000000002,,5.680000000000002
394,2016-10-31,14.636666666666661,,14.636666666666661
394,2016-11-01,22.77666666666667,,22.77666666666667
394,2016-11-02,8.976666666666668,,8.976666666666668
394,2016-11-03,10.503333333333334,,10.503333333333334
394,2016-11-04,23.77666666666667,,23.77666666666667
394,2016-11-05,16.203333333333333,,16.203333333333333
394,2016-11-06,21.736666666666668,,21.736666666666668
394,2016-11-07,25.020000000000007,,25.020000000000007
394,2016-11-08,20.45,,20.45
394,2016-11-09,7.8400000000000025,,7.8400000000000025
394,2016-11-10,22.46333333333334,,22.46333333333334
394,2016-11-11,17.519999999999996,,17.519999999999996
394,2016-11-12,14.893333333333329,,14.893333333333329
394,2016-11-13,21.79333333333334,,21.79333333333334
394,2016-11-14,22.75000000000001,,22.75000000000001
394,2016-11-15,17.196666666666662,,17.196666666666662
394,2016-11-16,15.979999999999999,,15.979999999999999
394,2016-11-17,10.25666666666667,,10.25666666666667
394,2016-11-18,19.12666666666666,,19.12666666666666
394,2016-11-19,17.043333333333333,,17.043333333333333
394,2016-11-20,3.976666666666666,,3.976666666666666
394,2016-11-21,0.7466666666666665,,0.7466666666666665
394,2016-11-22,1.3066666666666664,,1.3066666666666664
394,2016-11-23,2.9199999999999995,,2.9199999999999995
394,2016-11-24,1.2899999999999994,,1.2899999999999994
394,2016-11-25,2.2233333333333327,,2.2233333333333327
394,2016-11-26,3.3299999999999987,,3.3299999999999987
394,2016-11-27,5.276666666666666,,5.276666666666666
394,2016-11-28,12.89333333333333,,12.89333333333333
394,2016-11-29,3.8299999999999996,,3.8299999999999996
394,2016-11-30,3.446666666666666,,3.446666666666666
394,2016-12-01,4.49,,4.49
394,2016-12-02,7.503333333333335,,7.503333333333335
394,2016-12-03,6.190000000000004,,6.190000000000004
394,2016-12-04,14.526666666666662,,14.526666666666662
394,2016-12-05,1.513333333333333,,1.513333333333333
394,2016-12-06,11.93333333333333,,11.93333333333333
394,2016-12-07,13.69333333333333,,13.69333333333333
394,2016-12-08,9.103333333333335,,9.103333333333335
394,2016-12-09,2.9766666666666666,,2.9766666666666666
394,2016-12-10,0.3333333333333333,,0.3333333333333333
394,2016-12-11,0.09333333333333334,,0.09333333333333334
394,2016-12-12,0.05666666666666667,,0.05666666666666667
394,2016-12-13,0.08000000000000002,,0.08000000000000002
394,2016-12-14,0.15333333333333335,,0.15333333333333335
394,2016-12-15,0.06333333333333335,,0.06333333333333335
394,2016-12-16,0.07000000000000002,,0.07000000000000002
394,2016-12-17,0.05666666666666667,,0.05666666666666667
394,2016-12-18,0.06333333333333335,,0.06333333333333335
394,2016-12-19,0.0666666666666667,,0.0666666666666667
394,2016-12-20,0.07333333333333335,,0.07333333333333335
394,2016-12-21,0.08000000000000002,,0.08000000000000002
394,2016-12-22,0.05333333333333334,,0.05333333333333334
394,2016-12-23,0.08333333333333336,,0.08333333333333336
394,2016-12-24,0.12333333333333336,,0.12333333333333336
394,2016-12-25,6.696666666666669,,6.696666666666669
394,2016-12-26,2.9099999999999997,,2.9099999999999997
394,2016-12-27,2.8766666666666665,,2.8766666666666665
394,2016-12-28,0.5133333333333333,,0.5133333333333333
394,2016-12-29,0.10000000000000002,,0.10000000000000002
394,2016-12-30,0.14000000000000004,,0.14000000000000004
394,2016-12-31,0.09333333333333334,,0.09333333333333334
394,2017-01-01,5.0,,5.0
394,2017-01-02,3.426666666666666,,3.426666666666666
394,2017-01-03,3.22,,3.22
394,2017-01-04,8.573333333333336,,8.573333333333336
394,2017-01-05,10.879999999999997,,10.879999999999997
394,2017-01-06,4.2,,4.2
394,2017-01-07,6.076666666666669,,6.076666666666669
394,2017-01-08,0.723333333333333,,0.723333333333333
394,2017-01-09,0.20333333333333337,,0.20333333333333337
394,2017-01-10,0.13000000000000003,,0.13000000000000003
394,2017-01-11,14.869999999999997,,14.869999999999997
394,2017-01-12,2.7333333333333325,,2.7333333333333325
394,2017-01-13,6.853333333333336,,6.853333333333336
394,2017-01-14,8.580000000000002,,8.580000000000002
394,2017-01-15,14.6,,14.6
394,2017-01-16,18.246666666666666,,18.246666666666666
394,2017-01-17,2.306666666666666,,2.306666666666666
394,2017-01-18,2.7899999999999996,,2.7899999999999996
394,2017-01-19,6.113333333333336,,6.113333333333336
394,2017-01-20,9.643333333333336,,9.643333333333336
394,2017-01-21,13.15333333333333,,13.15333333333333
394,2017-01-22,11.369999999999997,,11.369999999999997
394,2017-01-23,6.056666666666669,,6.056666666666669
394,2017-01-24,0.5966666666666667,,0.5966666666666667
394,2017-01-25,0.7733333333333331,,0.7733333333333331
394,2017-01-26,8.390000000000002,,8.390000000000002
394,2017-01-27,5.386666666666669,,5.386666666666669
394,2017-01-28,9.503333333333336,,9.503333333333336
394,2017-01-29,10.839999999999998,,10.839999999999998
394,2017-01-30,5.056666666666667,,5.056666666666667
394,2017-01-31,1.1366666666666663,,1.1366666666666663
394,2017-02-01,4.16,,4.16
394,2017-02-02,0.44666666666666677,,0.44666666666666677
394,2017-02-03,1.4066666666666663,,1.4066666666666663
394,2017-02-04,0.2266666666666667,,0.2266666666666667
394,2017-02-05,0.17666666666666667,,0.17666666666666667
394,2017-02-06,0.35333333333333333,,0.35333333333333333
394,2017-02-07,0.2866666666666667,,0.2866666666666667
394,2017-02-08,12.293333333333331,,12.293333333333331
394,2017-02-09,2.736666666666666,,2.736666666666666
394,2017-02-10,0.7933333333333329,,0.7933333333333329
394,2017-02-11,0.6999999999999997,,0.6999999999999997
394,2017-02-12,0.27666666666666667,,0.27666666666666667
394,2017-02-13,0.12666666666666668,,0.12666666666666668
394,2017-02-14,0.19000000000000003,,0.19000000000000003
394,2017-02-15,0.27666666666666667,,0.27666666666666667
394,2017-02-16,0.2266666666666667,,0.2266666666666667
394,2017-02-17,0.30666666666666664,,0.30666666666666664
394,2017-02-18,2.9333333333333336,,2.9333333333333336
394,2017-02-19,22.570000000000007,,22.570000000000007
394,2017-02-20,29.736666666666675,,29.736666666666675
394,2017-02-21,18.17333333333333,,18.17333333333333
394,2017-02-22,20.41,,20.41
394,2017-02-23,15.769999999999998,,15.769999999999998
394,2017-02-24,15.559999999999997,,15.559999999999997
394,2017-02-25,5.163333333333332,,5.163333333333332
394,2017-02-26,2.423333333333333,,2.423333333333333
394,2017-02-27,26.070000000000004,,26.070000000000004
394,2017-02-28,19.826666666666664,,19.826666666666664
394,2017-03-01,11.58333333333333,,11.58333333333333
394,2017-03-02,18.209999999999997,,18.209999999999997
394,2017-03-03,23.46666666666667,,23.46666666666667
394,2017-03-04,24.486666666666675,,24.486666666666675
394,2017-03-05,35.643333333333324,,35.643333333333324
394,2017-03-06,18.433333333333326,,18.433333333333326
394,2017-03-07,5.4333333333333345,,5.4333333333333345
394,2017-03-08,25.446666666666673,,25.446666666666673
394,2017-03-09,19.583333333333332,,19.583333333333332
394,2017-03-10,23.250000000000004,,23.250000000000004
394,2017-03-11,17.223333333333336,,17.223333333333336
394,2017-03-12,15.590000000000002,,15.590000000000002
394,2017-03-13,2.7000000000000006,,2.7000000000000006
394,2017-03-14,0.07666666666666669,,0.07666666666666669
394,2017-03-15,0.5166666666666667,,0.5166666666666667
394,2017-03-16,1.4799999999999995,,1.4799999999999995
394,2017-03-17,4.886666666666667,,4.886666666666667
394,2017-03-18,2.773333333333333,,2.773333333333333
394,2017-03-19,6.5200000000000005,,6.5200000000000005
394,2017-03-20,6.210000000000002,,6.210000000000002
394,2017-03-21,9.33,,9.33
394,2017-03-22,18.23,,18.23
394,2017-03-23,25.33666666666667,,25.33666666666667
394,2017-03-24,4.779999999999999,,4.779999999999999
394,2017-03-25,8.206666666666669,,8.206666666666669
394,2017-03-26,14.426666666666662,,14.426666666666662
394,2017-03-27,12.32,,12.32
394,2017-03-28,9.646666666666668,,9.646666666666668
394,2017-03-29,38.07666666666667,,38.07666666666667
394,2017-03-30,25.676666666666666,,25.676666666666666
394,2017-03-31,6.606666666666669,,6.606666666666669
394,2017-04-01,13.656666666666666,,13.656666666666666
394,2017-04-02,47.92333333333332,,47.92333333333332
394,2017-04-03,29.79666666666667,,29.79666666666667
394,2017-04-04,15.243333333333332,,15.243333333333332
394,2017-04-05,18.97666666666667,,18.97666666666667
394,2017-04-06,7.080000000000001,,7.080000000000001
394,2017-04-07,14.42333333333333,,14.42333333333333
394,2017-04-08,52.326666666666654,,52.326666666666654
394,2017-04-09,49.46999999999999,,49.46999999999999
394,2017-04-10,46.949999999999996,,46.949999999999996
394,2017-04-11,25.21666666666667,,25.21666666666667
394,2017-04-12,19.26666666666667,,19.26666666666667
394,2017-04-13,49.673333333333325,,49.673333333333325
394,2017-04-14,54.11999999999998,,54.11999999999998
394,2017-04-15,28.900000000000006,,28.900000000000006
394,2017-04-16,37.49333333333333,,37.49333333333333
394,2017-04-17,44.843333333333334,,44.843333333333334
394,2017-04-18,56.38333333333332,,56.38333333333332
394,2017-04-19,10.216666666666669,,10.216666666666669
394,2017-04-20,20.43333333333333,,20.43333333333333
394,2017-04-21,16.09333333333333,,16.09333333333333
394,2017-04-22,28.15666666666667,,28.15666666666667
394,2017-04-23,57.02333333333331,,57.02333333333331
394,2017-04-24,54.50999999999999,,54.50999999999999
394,2017-04-25,23.28333333333333,,23.28333333333333
394,2017-04-26,48.54333333333332,,48.54333333333332
394,2017-04-27,50.21999999999999,,50.21999999999999
394,2017-04-28,51.20999999999998,,51.20999999999998
394,2017-04-29,13.889999999999999,,13.889999999999999
394,2017-04-30,24.126666666666676,,24.126666666666676
394,2017-05-01,26.760000000000005,,26.760000000000005
394,2017-05-02,19.626666666666665,,19.626666666666665
394,2017-05-03,41.81666666666667,,41.81666666666667
394,2017-05-04,27.80333333333333,,27.80333333333333
394,2017-05-05,10.69333333333333,,10.69333333333333
394,2017-05-06,12.609999999999994,,12.609999999999994
394,2017-05-07,23.313333333333336,,23.313333333333336
394,2017-05-08,34.013333333333335,,34.013333333333335
394,2017-05-09,32.13666666666667,,32.13666666666667
394,2017-05-10,48.66333333333333,,48.66333333333333
394,2017-05-11,51.63333333333333,,51.63333333333333
394,2017-05-12,45.47333333333332,,45.47333333333332
394,2017-05-13,13.993333333333332,,13.993333333333332
394,2017-05-14,41.05666666666667,,41.05666666666667
394,2017-05-15,42.333333333333336,,42.333333333333336
394,2017-05-16,49.35999999999999,,49.35999999999999
394,2017-05-17,52.87666666666666,,52.87666666666666
394,2017-05-18,43.72999999999999,,43.72999999999999
394,2017-05-19,34.00333333333334,,34.00333333333334
394,2017-05-20,59.49333333333333,,59.49333333333333
394,2017-05-21,27.859999999999996,,27.859999999999996
394,2017-05-22,21.82333333333334,,21.82333333333334
394,2017-05-23,50.02666666666665,,50.02666666666665
394,2017-05-24,45.423333333333325,,45.423333333333325
394,2017-05-25,14.543333333333331,,14.543333333333331
394,2017-05-26,25.39333333333333,,25.39333333333333
394,2017-05-27,24.30333333333333,,24.30333333333333
394,2017-05-28,40.31333333333333,,40.31333333333333
394,2017-05-29,25.42,,25.42
394,2017-05-30,23.733333333333338,,23.733333333333338
394,2017-05-31,47.98333333333334,,47.98333333333334
394,2017-06-01,54.62333333333333,,54.62333333333333
394,2017-06-02,67.32000000000001,,67.32000000000001
394,2017-06-03,68.13333333333331,,68.13333333333331
394,2017-06-04,13.559999999999997,,13.559999999999997
394,2017-06-05,32.67000000000001,,32.67000000000001
394,2017-06-06,10.786666666666664,,10.786666666666664
394,2017-06-07,68.13666666666666,,68.13666666666666
394,2017-06-08,61.70999999999999,,61.70999999999999
394,2017-06-09,67.14333333333332,,67.14333333333332
394,2017-06-10,58.873333333333335,,58.873333333333335
394,2017-06-11,64.84666666666665,,64.84666666666665
394,2017-06-12,62.73333333333332,,62.73333333333332
394,2017-06-13,40.903333333333336,,40.903333333333336
394,2017-06-14,67.73333333333333,,67.73333333333333
394,2017-06-15,37.013333333333335,,37.013333333333335
394,2017-06-16,46.51000000000001,,46.51000000000001
394,2017-06-17,57.97999999999999,,57.97999999999999
394,2017-06-18,50.78999999999999,,50.78999999999999
394,2017-06-19,21.27,,21.27
394,2017-06-20,48.10333333333333,,48.10333333333333
394,2017-06-21,56.68333333333333,,56.68333333333333
394,2017-06-22,45.54666666666665,,45.54666666666665
394,2017-06-23,29.770000000000007,,29.770000000000007
394,2017-06-24,57.80666666666665,,57.80666666666665
394,2017-06-25,48.91666666666665,,48.91666666666665
394,2017-06-26,42.919999999999995,,42.919999999999995
394,2017-06-27,40.28666666666667,,40.28666666666667
394,2017-06-28,61.45666666666667,,61.45666666666667
394,2017-06-29,18.476666666666663,,18.476666666666663
394,2017-06-30,35.70333333333334,,35.70333333333334
394,2017-07-01,25.203333333333337,,25.203333333333337
394,2017-07-02,61.25666666666666,,61.25666666666666
394,2017-07-03,66.13000000000001,,66.13000000000001
394,2017-07-04,59.53666666666667,,59.53666666666667
394,2017-07-05,62.43333333333333,,62.43333333333333
394,2017-07-06,35.283333333333346,,35.283333333333346
394,2017-07-07,47.886666666666656,,47.886666666666656
394,2017-07-08,44.716666666666676,,44.716666666666676
394,2017-07-09,57.69,,57.69
394,2017-07-10,50.633333333333326,,50.633333333333326
394,2017-07-11,52.50333333333332,,52.50333333333332
394,2017-07-12,43.22333333333332,,43.22333333333332
394,2017-07-13,22.760000000000005,,22.760000000000005
394,2017-07-14,35.14333333333334,,35.14333333333334
394,2017-07-15,30.930000000000007,,30.930000000000007
394,2017-07-16,43.79999999999999,,43.79999999999999
394,2017-07-17,35.56,,35.56
394,2017-07-18,50.81,,50.81
394,2017-07-19,47.27333333333333,,47.27333333333333
394,2017-07-20,36.49666666666667,,36.49666666666667
394,2017-07-21,44.456666666666656,,44.456666666666656
394,2017-07-22,24.230000000000004,,24.230000000000004
394,2017-07-23,24.12333333333334,,24.12333333333334
394,2017-07-24,22.32666666666667,,22.32666666666667
394,2017-07-25,16.753333333333334,,16.753333333333334
394,2017-07-26,28.64,,28.64
394,2017-07-27,23.413333333333338,,23.413333333333338
394,2017-07-28,54.26,,54.26
394,2017-07-29,61.23,,61.23
394,2017-07-30,58.81,,58.81
394,2017-07-31,58.36333333333332,,58.36333333333332
394,2017-08-01,48.24999999999999,,48.24999999999999
394,2017-08-02,48.71666666666666,,48.71666666666666
394,2017-08-03,55.74666666666666,,55.74666666666666
394,2017-08-04,45.25333333333333,,45.25333333333333
394,2017-08-05,38.18,,38.18
394,2017-08-06,52.57333333333333,,52.57333333333333
394,2017-08-07,33.339999999999996,,33.339999999999996
394,2017-08-08,55.75666666666666,,55.75666666666666
394,2017-08-09,47.553333333333335,,47.553333333333335
394,2017-08-10,45.26333333333332,,45.26333333333332
394,2017-08-11,34.833333333333336,,34.833333333333336
394,2017-08-12,42.26666666666667,,42.26666666666667
394,2017-08-13,54.06999999999999,,54.06999999999999
394,2017-08-14,51.91999999999998,,51.91999999999998
394,2017-08-15,38.10666666666667,,38.10666666666667
394,2017-08-16,47.683333333333316,,47.683333333333316
394,2017-08-17,48.656666666666666,,48.656666666666666
394,2017-08-18,41.77333333333333,,41.77333333333333
394,2017-08-19,37.9,,37.9
394,2017-08-20,50.813333333333325,,50.813333333333325
394,2017-08-21,44.26666666666667,,44.26666666666667
394,2017-08-22,28.370000000000005,,28.370000000000005
394,2017-08-23,46.56,,46.56
394,2017-08-24,38.83666666666668,,38.83666666666668
394,2017-08-25,52.696666666666665,,52.696666666666665
394,2017-08-26,48.143333333333324,,48.143333333333324
394,2017-08-27,53.51,,53.51
394,2017-08-28,34.42333333333334,,34.42333333333334
394,2017-08-29,41.03333333333334,,41.03333333333334
394,2017-08-30,42.620000000000005,,42.620000000000005
394,2017-08-31,34.513333333333335,,34.513333333333335
394,2017-09-01,44.633333333333326,,44.633333333333326
394,2017-09-02,49.16999999999999,,49.16999999999999
394,2017-09-03,15.376666666666667,,15.376666666666667
394,2017-09-04,43.26999999999999,,43.26999999999999
394,2017-09-05,5.490000000000002,,5.490000000000002
394,2017-09-06,18.16333333333333,,18.16333333333333
394,2017-09-07,34.45,,34.45
394,2017-09-08,33.24666666666667,,33.24666666666667
394,2017-09-09,27.956666666666674,,27.956666666666674
394,2017-09-10,44.62333333333333,,44.62333333333333
394,2017-09-11,42.98333333333333,,42.98333333333333
394,2017-09-12,42.01666666666667,,42.01666666666667
394,2017-09-13,38.90666666666667,,38.90666666666667
394,2017-09-14,16.616666666666664,,16.616666666666664
394,2017-09-15,37.43,,37.43
394,2017-09-16,37.190000000000005,,37.190000000000005
394,2017-09-17,35.71000000000001,,35.71000000000001
394,2017-09-18,37.186666666666675,,37.186666666666675
394,2017-09-19,37.693333333333335,,37.693333333333335
394,2017-09-20,38.31,,38.31
394,2017-09-21,30.05000000000001,,30.05000000000001
394,2017-09-22,33.506666666666675,,33.506666666666675
394,2017-09-23,36.84666666666667,,36.84666666666667
394,2017-09-24,35.31000000000001,,35.31000000000001
394,2017-09-25,34.616666666666674,,34.616666666666674
394,2017-09-26,28.86333333333334,,28.86333333333334
394,2017-09-27,33.15666666666667,,33.15666666666667
394,2017-09-28,19.99,,19.99
394,2017-09-29,26.04333333333334,,26.04333333333334
394,2017-09-30,20.869999999999997,,20.869999999999997
394,2017-10-01,33.53666666666668,,33.53666666666668
394,2017-10-02,37.09333333333334,,37.09333333333334
394,2017-10-03,35.49,,35.49
394,2017-10-04,26.813333333333336,,26.813333333333336
394,2017-10-05,32.03333333333334,,32.03333333333334
394,2017-10-06,9.07666666666667,,9.07666666666667
394,2017-10-07,17.899999999999995,,17.899999999999995
394,2017-10-08,21.966666666666672,,21.966666666666672
394,2017-10-09,7.233333333333335,,7.233333333333335
394,2017-10-10,26.590000000000007,,26.590000000000007
394,2017-10-11,6.253333333333335,,6.253333333333335
394,2017-10-12,16.176666666666662,,16.176666666666662
394,2017-10-13,21.72333333333334,,21.72333333333334
394,2017-10-14,17.906666666666663,,17.906666666666663
394,2017-10-15,25.623333333333346,,25.623333333333346
394,2017-10-16,20.263333333333332,,20.263333333333332
394,2017-10-17,28.77666666666667,,28.77666666666667
394,2017-10-18,32.31666666666667,,32.31666666666667
394,2017-10-19,31.063333333333343,,31.063333333333343
394,2017-10-20,32.186666666666675,,32.186666666666675
394,2017-10-21,25.820000000000007,,25.820000000000007
394,2017-10-22,26.583333333333343,,26.583333333333343
394,2017-10-23,20.669999999999998,,20.669999999999998
394,2017-10-24,23.176666666666673,,23.176666666666673
394,2017-10-25,26.806666666666683,,26.806666666666683
394,2017-10-26,19.023333333333337,,19.023333333333337
394,2017-10-27,26.013333333333346,,26.013333333333346
394,2017-10-28,18.909999999999997,,18.909999999999997
394,2017-10-29,3.52,,3.52
394,2017-10-30,12.749999999999998,,12.749999999999998
394,2017-10-31,9.893333333333334,,9.893333333333334
394,2017-11-01,8.806666666666668,,8.806666666666668
394,2017-11-02,13.356666666666667,,13.356666666666667
394,2017-11-03,7.29666666666667,,7.29666666666667
394,2017-11-04,17.08333333333333,,17.08333333333333
394,2017-11-05,4.533333333333334,,4.533333333333334
394,2017-11-06,8.033333333333335,,8.033333333333335
394,2017-11-07,11.49333333333333,,11.49333333333333
394,2017-11-08,26.12333333333334,,26.12333333333334
394,2017-11-09,20.656666666666663,,20.656666666666663
394,2017-11-10,10.196666666666669,,10.196666666666669
394,2017-11-11,20.209999999999997,,20.209999999999997
394,2017-11-12,21.026666666666664,,21.026666666666664
394,2017-11-13,8.493333333333336,,8.493333333333336
394,2017-11-14,9.043333333333335,,9.043333333333335
394,2017-11-15,20.666666666666664,,20.666666666666664
394,2017-11-16,8.36666666666667,,8.36666666666667
394,2017-11-17,22.130000000000006,,22.130000000000006
394,2017-11-18,3.6166666666666667,,3.6166666666666667
394,2017-11-19,4.296666666666667,,4.296666666666667
394,2017-11-20,0.08333333333333336,,0.08333333333333336
394,2017-11-21,2.4266666666666663,,2.4266666666666663
394,2017-11-22,6.5900000000000025,,6.5900000000000025
394,2017-11-23,9.246666666666668,,9.246666666666668
394,2017-11-24,20.45333333333333,,20.45333333333333
394,2017-11-25,4.956666666666666,,4.956666666666666
394,2017-11-26,5.343333333333336,,5.343333333333336
394,2017-11-27,14.31333333333333,,14.31333333333333
394,2017-11-28,19.186666666666664,,19.186666666666664
394,2017-11-29,8.886666666666668,,8.886666666666668
394,2017-11-30,14.039999999999994,,14.039999999999994
394,2017-12-01,8.323333333333336,,8.323333333333336
394,2017-12-02,11.046666666666665,,11.046666666666665
394,2017-12-03,16.263333333333332,,16.263333333333332
394,2017-12-04,14.839999999999996,,14.839999999999996
394,2017-12-05,2.2066666666666666,,2.2066666666666666
394,2017-12-06,12.58333333333333,,12.58333333333333
394,2017-12-07,8.00666666666667,,8.00666666666667
394,2017-12-08,8.310000000000002,,8.310000000000002
394,2017-12-09,12.28,,12.28
394,2017-12-10,10.396666666666668,,10.396666666666668
394,2017-12-11,0.59,,0.59
394,2017-12-12,0.06,,0.06
394,2017-12-13,0.05666666666666667,,0.05666666666666667
394,2017-12-14,0.06333333333333334,,0.06333333333333334
394,2017-12-15,0.060000000000000005,,0.060000000000000005
394,2017-12-16,0.11000000000000003,,0.11000000000000003
394,2017-12-17,0.08666666666666667,,0.08666666666666667
394,2017-12-18,0.09333333333333334,,0.09333333333333334
394,2017-12-19,9.460000000000003,,9.460000000000003
394,2017-12-20,0.63,,0.63
394,2017-12-21,5.283333333333333,,5.283333333333333
394,2017-12-22,0.12000000000000004,,0.12000000000000004
394,2017-12-23,0.12000000000000001,,0.12000000000000001
394,2017-12-24,0.22333333333333338,,0.22333333333333338
394,2017-12-25,1.283333333333333,,1.283333333333333
394,2017-12-26,2.0466666666666664,,2.0466666666666664
394,2017-12-27,0.9099999999999997,,0.9099999999999997
394,2017-12-28,0.14,,0.14
394,2017-12-29,0.17666666666666667,,0.17666666666666667
394,2017-12-30,0.18000000000000002,,0.18000000000000002
394,2017-12-31,0.08666666666666668,,0.08666666666666668
394,2018-01-01,0.08000000000000002,,0.08000000000000002
394,2018-01-02,0.28,,0.28
394,2018-01-03,0.913333333333333,,0.913333333333333
394,2018-01-04,0.1566666666666667,,0.1566666666666667
394,2018-01-05,0.17333333333333334,,0.17333333333333334
394,2018-01-06,0.17,,0.17
394,2018-01-07,0.18999999999999997,,0.18999999999999997
394,2018-01-08,0.07666666666666669,,0.07666666666666669
394,2018-01-09,0.25,,0.25
394,2018-01-10,1.876666666666666,,1.876666666666666
394,2018-01-11,4.543333333333333,,4.543333333333333
394,2018-01-12,4.31,,4.31
394,2018-01-13,0.16333333333333336,,0.16333333333333336
394,2018-01-14,0.14333333333333334,,0.14333333333333334
394,2018-01-15,0.16,,0.16
394,2018-01-16,0.0666666666666667,,0.0666666666666667